This is the latest recevied weather packets stored in our database for station/object K7FRY. If no packets are shown the sender has not sent any weather packets the latest 1 day(s).
| Time | Temp. | Humidity | Pressure | Rain* | Wind** | Luminosity | Snow |
|---|---|---|---|---|---|---|---|
| 1777983501 | 13.33° C | 99% | 1012.7 hPa | 0 mm | 0 m/s | 0 W/m² | - |
| 1777983198 | 13.89° C | 99% | 1012.8 hPa | 0 mm | 0 m/s | 0 W/m² | - |
| 1777982894 | 13.89° C | 99% | 1012.7 hPa | 0 mm | 0 m/s | 0 W/m² | - |
| 1777982590 | 13.89° C | 99% | 1012.7 hPa | 1.27 mm | 0 m/s | 0 W/m² | - |
| 1777982288 | 13.89° C | 99% | 1012.8 hPa | 0 mm | 0 m/s | 0 W/m² | - |
| 1777981986 | 13.33° C | 99% | 1012.8 hPa | 0 mm | 0 m/s | 0 W/m² | - |
| 1777981684 | 13.89° C | 99% | 1012.9 hPa | 0 mm | 0 m/s | 0 W/m² | - |
| 1777981380 | 13.89° C | 99% | 1012.8 hPa | 0 mm | 0.45 m/s, 156° | 0 W/m² | - |
| 1777981076 | 13.89° C | 99% | 1013.1 hPa | 0 mm | 0 m/s | 0 W/m² | - |
| 1777980773 | 13.89° C | 99% | 1012.8 hPa | 1.78 mm | 0 m/s | 0 W/m² | - |
| 1777980469 | 13.89° C | 99% | 1013.1 hPa | 3.05 mm | 0 m/s | 0 W/m² | - |
| 1777980167 | 13.89° C | 99% | 1013.3 hPa | 0 mm | 0.45 m/s, 123° | 0 W/m² | - |
| 1777979867 | 13.89° C | 99% | 1013.6 hPa | 1.78 mm | 0 m/s | 0 W/m² | - |
| 1777979563 | 13.89° C | 99% | 1013.5 hPa | 1.27 mm | 0 m/s | 0 W/m² | - |
| 1777979259 | 13.89° C | 99% | 1012.9 hPa | 1.27 mm | 0 m/s | 0 W/m² | - |
| 1777978957 | 13.89° C | 99% | 1013.4 hPa | 0 mm | 0 m/s | 0 W/m² | - |
| 1777978653 | 13.89° C | 99% | 1013.4 hPa | 0 mm | 0.45 m/s, 150° | 0 W/m² | - |
| 1777978348 | 13.89° C | 99% | 1013.2 hPa | 0 mm | 0 m/s | 0 W/m² | - |
| 1777978045 | 13.89° C | 99% | 1013.2 hPa | 0 mm | 0.45 m/s, 189° | 0 W/m² | - |
| 1777977743 | 13.89° C | 99% | 1013.5 hPa | 0 mm | 0.89 m/s, 162° | 0 W/m² | - |
| 1777977439 | 14.44° C | 99% | 1013.6 hPa | 1.78 mm | 1.34 m/s, 206° | 0 W/m² | - |
| 1777977137 | 13.89° C | 99% | 1013.6 hPa | 1.78 mm | 0 m/s | 0 W/m² | - |
| 1777976834 | 14.44° C | 99% | 1013.8 hPa | 0 mm | 0.45 m/s, 190° | 0 W/m² | - |
| 1777976532 | 14.44° C | 99% | 1013.5 hPa | 0 mm | 1.34 m/s, 184° | 0 W/m² | - |
| 1777976231 | 14.44° C | 99% | 1013.6 hPa | 0 mm | 0.89 m/s, 206° | 0 W/m² | - |
* Rain latest hour (hover to see other rain measurements)
** Current wind speed in m/s (hover to see current wind gust speed)